Time,TemperatureF,DewpointF,PressureIn,WindDirection,WindDirectionDegrees,WindSpeedMPH,WindSpeedGustMPH,Humidity,HourlyPrecipIn,Conditions,Clouds,dailyrainin,SoftwareType,DateUTC
2014-10-25 00:00:00,74.7,66.2,29.84,North,5,9.2,9.2,75,0.00,RA,,0.00,WeatherDisplay:10.37,2014-10-25 04:00:00,
2014-10-25 00:05:00,74.7,66.2,29.84,North,5,8.1,8.1,75,0.00,RA,,0.00,WeatherDisplay:10.37,2014-10-25 04:05:00,
2014-10-25 00:10:00,74.6,66.5,29.84,North,5,7.0,7.0,76,0.00,CLR,,0.00,WeatherDisplay:10.37,2014-10-25 04:10:00,
2014-10-25 00:15:00,74.6,66.5,29.84,NNE,19,5.8,5.8,76,0.00,CLR,,0.00,WeatherDisplay:10.37,2014-10-25 04:15:00,
2014-10-25 00:20:00,74.4,66.3,29.84,North,360,5.8,5.8,76,0.00,CLR,,0.00,WeatherDisplay:10.37,2014-10-25 04:20:00,
2014-10-25 00:25:00,74.4,66.3,29.84,NE,37,6.9,6.9,76,0.00,CLR,,0.00,WeatherDisplay:10.37,2014-10-25 04:25:00,
2014-10-25 00:30:00,74.2,65.8,29.84,North,5,5.0,5.0,75,0.00,CLR,,0.00,WeatherDisplay:10.37,2014-10-25 04:30:00,
2014-10-25 00:35:00,74.1,66.0,29.84,NW,326,5.8,5.8,76,0.00,CLR,,0.00,WeatherDisplay:10.37,2014-10-25 04:35:00,
2014-10-25 00:40:00,73.8,66.1,29.84,NNW,343,5.8,5.8,77,0.00,CLR,,0.00,WeatherDisplay:10.37,2014-10-25 04:40:00,
2014-10-25 00:45:00,73.4,66.1,29.84,North,5,4.6,4.6,78,0.00,CLR,,0.00,WeatherDisplay:10.37,2014-10-25 04:45:00,
2014-10-25 00:50:00,73.1,66.2,29.84,NNW,346,5.8,5.8,79,0.00,CLR,,0.00,WeatherDisplay:10.37,2014-10-25 04:50:00,
2014-10-25 00:55:00,72.8,65.9,29.84,North,355,5.8,5.8,79,0.00,CLR,,0.00,WeatherDisplay:10.37,2014-10-25 04:55:00,
2014-10-25 01:00:00,72.7,65.8,29.84,North,355,6.9,6.9,79,0.00,CLR,,0.00,WeatherDisplay:10.37,2014-10-25 05:00:00,
2014-10-25 01:05:00,72.6,65.7,29.84,North,5,9.2,9.2,79,0.00,CLR,,0.00,WeatherDisplay:10.37,2014-10-25 05:05:00,
2014-10-25 01:10:00,72.7,65.4,29.84,North,5,9.2,9.2,78,0.00,CLR,,0.00,WeatherDisplay:10.37,2014-10-25 05:10:00,
2014-10-25 01:15:00,72.9,65.6,29.84,NE,45,11.5,11.5,78,0.00,CLR,,0.00,WeatherDisplay:10.37,2014-10-25 05:15:00,
2014-10-25 01:20:00,73.0,65.4,29.83,NE,52,11.5,11.5,77,0.00,CLR,,0.00,WeatherDisplay:10.37,2014-10-25 05:20:00,
2014-10-25 01:25:00,73.1,65.5,29.83,North,5,11.5,11.5,77,0.00,CLR,,0.00,WeatherDisplay:10.37,2014-10-25 05:25:00,
2014-10-25 01:30:00,73.2,65.6,29.83,ENE,61,11.5,11.5,77,0.00,CLR,,0.00,WeatherDisplay:10.37,2014-10-25 05:30:00,
2014-10-25 01:35:00,73.1,65.1,29.83,NNE,22,11.5,11.5,76,0.00,CLR,,0.00,WeatherDisplay:10.37,2014-10-25 05:35:00,
2014-10-25 01:40:00,73.1,65.5,29.84,NNE,12,11.5,11.5,77,0.00,CLR,,0.00,WeatherDisplay:10.37,2014-10-25 05:40:00,
2014-10-25 01:45:00,73.0,65.4,29.83,NNE,31,11.5,11.5,77,0.00,CLR,,0.00,WeatherDisplay:10.37,2014-10-25 05:45:00,
2014-10-25 01:50:00,73.0,65.0,29.83,NNE,23,11.5,11.5,76,0.00,CLR,,0.00,WeatherDisplay:10.37,2014-10-25 05:50:00,
2014-10-25 01:55:00,73.1,65.1,29.83,NE,42,13.8,13.8,76,0.00,CLR,,0.00,WeatherDisplay:10.37,2014-10-25 05:55:00,
2014-10-25 02:00:00,73.1,65.1,29.83,NNE,22,6.9,6.9,76,0.00,CLR,,0.00,WeatherDisplay:10.37,2014-10-25 06:00:00,
2014-10-25 02:05:00,73.1,64.7,29.83,North,355,11.5,11.5,75,0.00,CLR,,0.00,WeatherDisplay:10.37,2014-10-25 06:05:00,
2014-10-25 02:11:00,73.1,64.7,29.83,North,355,8.1,8.1,75,0.00,CLR,,0.00,WeatherDisplay:10.37,2014-10-25 06:11:00,
2014-10-25 02:16:00,73.0,64.6,29.83,North,355,5.8,5.8,75,0.00,CLR,,0.00,WeatherDisplay:10.37,2014-10-25 06:16:00,
2014-10-25 02:21:00,72.8,64.8,29.83,North,360,4.6,4.6,76,0.00,CLR,,0.00,WeatherDisplay:10.37,2014-10-25 06:21:00,
2014-10-25 02:26:00,72.6,65.0,29.83,NNW,341,3.5,3.5,77,0.00,CLR,,0.00,WeatherDisplay:10.37,2014-10-25 06:26:00,
2014-10-25 02:31:00,72.2,64.6,29.83,NW,323,3.5,3.5,77,0.00,CLR,,0.00,WeatherDisplay:10.37,2014-10-25 06:31:00,
2014-10-25 02:36:00,71.9,65.0,29.83,NW,323,3.5,3.5,79,0.00,CLR,,0.00,WeatherDisplay:10.37,2014-10-25 06:36:00,
2014-10-25 02:41:00,71.5,65.0,29.83,NNW,340,2.3,2.3,80,0.00,CLR,,0.00,WeatherDisplay:10.37,2014-10-25 06:41:00,
2014-10-25 02:46:00,71.1,65.0,29.83,NNW,330,2.3,2.3,81,0.00,CLR,,0.00,WeatherDisplay:10.37,2014-10-25 06:46:00,
2014-10-25 02:51:00,70.7,64.9,29.83,NW,317,3.5,3.5,82,0.00,CLR,,0.00,WeatherDisplay:10.37,2014-10-25 06:51:00,
2014-10-25 02:56:00,70.3,64.9,29.83,NW,311,3.5,3.5,83,0.00,CLR,,0.00,WeatherDisplay:10.37,2014-10-25 06:56:00,
2014-10-25 03:01:00,70.0,64.9,29.83,NW,319,2.3,2.3,84,0.00,CLR,,0.00,WeatherDisplay:10.37,2014-10-25 07:01:00,
2014-10-25 03:06:00,69.7,65.0,29.83,NW,318,2.3,2.3,85,0.00,CLR,,0.00,WeatherDisplay:10.37,2014-10-25 07:06:00,
2014-10-25 03:11:00,69.4,65.0,29.83,NW,318,3.0,3.0,86,0.00,CLR,,0.00,WeatherDisplay:10.37,2014-10-25 07:11:00,
2014-10-25 03:16:00,69.2,64.8,29.82,NW,317,2.3,2.3,86,0.00,CLR,,0.00,WeatherDisplay:10.37,2014-10-25 07:16:00,
2014-10-25 03:21:00,68.9,64.5,29.82,NW,314,1.2,1.2,86,0.00,CLR,,0.00,WeatherDisplay:10.37,2014-10-25 07:21:00,
2014-10-25 03:26:00,68.7,64.7,29.82,NNW,332,3.5,3.5,87,0.00,CLR,,0.00,WeatherDisplay:10.37,2014-10-25 07:26:00,
2014-10-25 03:31:00,68.5,64.5,29.82,NW,317,3.5,3.5,87,0.00,CLR,,0.00,WeatherDisplay:10.37,2014-10-25 07:31:00,
2014-10-25 03:36:00,68.4,64.7,29.82,NNW,331,3.5,3.5,88,0.00,CLR,,0.00,WeatherDisplay:10.37,2014-10-25 07:36:00,
2014-10-25 03:41:00,68.3,64.6,29.82,NNW,333,3.0,3.0,88,0.00,CLR,,0.00,WeatherDisplay:10.37,2014-10-25 07:41:00,
2014-10-25 03:46:00,68.2,64.5,29.82,NW,325,4.0,4.0,88,0.00,CLR,,0.00,WeatherDisplay:10.37,2014-10-25 07:46:00,
2014-10-25 03:51:00,68.0,64.3,29.82,NW,324,3.5,3.5,88,0.00,CLR,,0.00,WeatherDisplay:10.37,2014-10-25 07:51:00,
2014-10-25 03:56:00,67.9,64.2,29.82,NNW,333,3.5,3.5,88,0.00,CLR,,0.00,WeatherDisplay:10.37,2014-10-25 07:56:00,
2014-10-25 04:01:00,67.7,64.0,29.82,NW,325,3.5,3.5,88,0.00,CLR,,0.00,WeatherDisplay:10.37,2014-10-25 08:01:00,
2014-10-25 04:06:00,67.6,63.9,29.82,NW,325,3.5,3.5,88,0.00,CLR,,0.00,WeatherDisplay:10.37,2014-10-25 08:06:00,
2014-10-25 04:11:00,67.5,64.1,29.82,NNW,333,3.5,3.5,89,0.00,CLR,,0.00,WeatherDisplay:10.37,2014-10-25 08:11:00,
2014-10-25 04:16:00,67.4,64.0,29.82,NW,324,3.5,3.5,89,0.00,CLR,,0.00,WeatherDisplay:10.37,2014-10-25 08:16:00,
2014-10-25 04:21:00,67.3,63.6,29.82,NNW,342,3.5,3.5,88,0.00,CLR,,0.00,WeatherDisplay:10.37,2014-10-25 08:21:00,
2014-10-25 04:26:00,67.2,63.8,29.82,NNW,331,3.5,3.5,89,0.00,CLR,,0.00,WeatherDisplay:10.37,2014-10-25 08:26:00,
2014-10-25 04:31:00,67.2,63.5,29.82,NNW,340,3.5,3.5,88,0.00,CLR,,0.00,WeatherDisplay:10.37,2014-10-25 08:31:00,
2014-10-25 04:36:00,67.1,63.4,29.82,NNW,340,3.5,3.5,88,0.00,CLR,,0.00,WeatherDisplay:10.37,2014-10-25 08:36:00,
2014-10-25 04:41:00,67.1,63.4,29.82,NNW,333,1.2,1.2,88,0.00,CLR,,0.00,WeatherDisplay:10.37,2014-10-25 08:41:00,
2014-10-25 04:46:00,67.0,63.6,29.82,NNW,333,1.2,0.0,89,0.00,CLR,,0.00,WeatherDisplay:10.37,2014-10-25 08:46:00,
2014-10-25 04:51:00,66.9,63.6,29.82,NNW,336,1.2,1.2,89,0.00,CLR,,0.00,WeatherDisplay:10.37,2014-10-25 08:51:00,
2014-10-25 04:56:00,66.9,63.6,29.82,NNW,345,2.3,2.3,89,0.00,CLR,,0.00,WeatherDisplay:10.37,2014-10-25 08:56:00,
2014-10-25 05:01:00,66.8,63.5,29.82,NNW,333,1.2,1.2,89,0.00,CLR,,0.00,WeatherDisplay:10.37,2014-10-25 09:01:00,
2014-10-25 05:06:00,66.8,63.5,29.82,NNW,328,3.5,3.5,89,0.00,CLR,,0.00,WeatherDisplay:10.37,2014-10-25 09:06:00,
2014-10-25 05:11:00,66.7,63.7,29.82,NW,311,2.3,2.3,90,0.00,CLR,,0.00,WeatherDisplay:10.37,2014-10-25 09:11:00,
2014-10-25 05:16:00,66.7,63.7,29.82,NNW,339,5.8,5.8,90,0.00,CLR,,0.00,WeatherDisplay:10.37,2014-10-25 09:16:00,
2014-10-25 05:21:00,66.6,63.6,29.82,NW,312,3.0,3.0,90,0.00,CLR,,0.00,WeatherDisplay:10.37,2014-10-25 09:21:00,
2014-10-25 05:26:00,66.5,63.5,29.82,NW,322,4.6,4.6,90,0.00,CLR,,0.00,WeatherDisplay:10.37,2014-10-25 09:26:00,
2014-10-25 05:31:00,66.3,63.3,29.82,NW,307,5.8,5.8,90,0.00,CLR,,0.00,WeatherDisplay:10.37,2014-10-25 09:31:00,
2014-10-25 05:36:00,66.1,63.1,29.83,NW,308,3.5,3.5,90,0.00,CLR,,0.00,WeatherDisplay:10.37,2014-10-25 09:36:00,
2014-10-25 05:41:00,66.0,63.0,29.83,NW,304,6.9,6.9,90,0.00,CLR,,0.00,WeatherDisplay:10.37,2014-10-25 09:41:00,
2014-10-25 05:46:00,65.9,62.9,29.83,NW,315,10.4,10.4,90,0.00,CLR,,0.00,WeatherDisplay:10.37,2014-10-25 09:46:00,
2014-10-25 05:51:00,65.8,62.5,29.83,NW,325,4.6,4.6,89,0.00,CLR,,0.00,WeatherDisplay:10.37,2014-10-25 09:51:00,
2014-10-25 05:56:00,65.7,62.4,29.83,NW,321,5.8,5.8,89,0.00,CLR,,0.00,WeatherDisplay:10.37,2014-10-25 09:56:00,
2014-10-25 06:01:00,65.6,62.3,29.83,NNW,333,4.6,4.6,89,0.00,CLR,,0.00,WeatherDisplay:10.37,2014-10-25 10:01:00,
2014-10-25 06:06:00,65.4,62.1,29.84,NW,311,4.0,4.0,89,0.00,CLR,,0.00,WeatherDisplay:10.37,2014-10-25 10:06:00,
2014-10-25 06:11:00,65.3,62.0,29.84,NNW,329,4.6,4.6,89,0.00,CLR,,0.00,WeatherDisplay:10.37,2014-10-25 10:11:00,
2014-10-25 06:16:00,65.2,62.2,29.84,WNW,302,4.6,4.6,90,0.00,CLR,,0.00,WeatherDisplay:10.37,2014-10-25 10:16:00,
2014-10-25 06:21:00,65.0,62.0,29.84,NNW,340,4.0,4.0,90,0.00,CLR,,0.00,WeatherDisplay:10.37,2014-10-25 10:21:00,
2014-10-25 06:26:00,64.9,61.9,29.84,WNW,302,3.5,3.5,90,0.00,CLR,,0.00,WeatherDisplay:10.37,2014-10-25 10:26:00,
2014-10-25 06:31:00,64.8,61.8,29.84,NW,324,3.5,3.5,90,0.00,CLR,,0.00,WeatherDisplay:10.37,2014-10-25 10:31:00,
2014-10-25 06:36:00,64.7,61.7,29.85,NW,320,5.8,5.8,90,0.00,CLR,,0.00,WeatherDisplay:10.37,2014-10-25 10:36:00,
2014-10-25 06:41:00,64.6,61.6,29.85,NW,323,4.6,4.6,90,0.00,CLR,,0.00,WeatherDisplay:10.37,2014-10-25 10:41:00,
2014-10-25 06:46:00,64.5,61.5,29.85,NW,325,4.6,4.6,90,0.00,CLR,,0.00,WeatherDisplay:10.37,2014-10-25 10:46:00,
2014-10-25 06:51:00,64.4,61.4,29.85,NNW,333,3.5,3.5,90,0.00,CLR,,0.00,WeatherDisplay:10.37,2014-10-25 10:51:00,
2014-10-25 06:56:00,64.4,61.7,29.85,NNW,340,4.0,4.0,91,0.00,CLR,,0.00,WeatherDisplay:10.37,2014-10-25 10:56:00,
2014-10-25 07:01:00,64.4,61.7,29.85,WNW,302,4.6,4.6,91,0.00,CLR,,0.00,WeatherDisplay:10.37,2014-10-25 11:01:00,
2014-10-25 07:06:00,64.3,61.6,29.85,NW,321,4.6,4.6,91,0.00,CLR,,0.00,WeatherDisplay:10.37,2014-10-25 11:06:00,
2014-10-25 07:11:00,64.3,61.6,29.85,NNW,328,3.5,3.5,91,0.00,CLR,,0.00,WeatherDisplay:10.37,2014-10-25 11:11:00,
2014-10-25 07:16:00,64.2,61.5,29.86,NW,310,3.5,3.5,91,0.00,CLR,,0.00,WeatherDisplay:10.37,2014-10-25 11:16:00,
2014-10-25 07:21:00,64.1,61.4,29.86,NW,312,4.6,4.6,91,0.00,CLR,,0.00,WeatherDisplay:10.37,2014-10-25 11:21:00,
2014-10-25 07:26:00,64.1,61.4,29.87,NW,311,7.0,7.0,91,0.00,CLR,,0.00,WeatherDisplay:10.37,2014-10-25 11:26:00,
2014-10-25 07:31:00,64.1,61.4,29.87,NW,320,9.2,9.2,91,0.00,CLR,,0.00,WeatherDisplay:10.37,2014-10-25 11:31:00,
2014-10-25 07:36:00,64.1,61.4,29.87,WNW,302,3.5,3.9,91,0.00,CLR,,0.00,WeatherDisplay:10.37,2014-10-25 11:36:00,
2014-10-25 07:41:00,64.2,61.5,29.86,NW,322,3.5,3.5,91,0.00,CLR,,0.00,WeatherDisplay:10.37,2014-10-25 11:41:00,
2014-10-25 07:46:00,64.2,61.5,29.87,NW,310,4.0,4.0,91,0.00,CLR,,0.00,WeatherDisplay:10.37,2014-10-25 11:46:00,
2014-10-25 07:52:00,64.4,62.0,29.87,NNW,327,5.8,5.8,92,0.00,CLR,,0.00,WeatherDisplay:10.37,2014-10-25 11:52:00,
2014-10-25 07:57:00,64.7,62.0,29.87,NW,304,6.9,6.9,91,0.00,CLR,,0.00,WeatherDisplay:10.37,2014-10-25 11:57:00,
2014-10-25 08:02:00,64.9,62.2,29.87,NW,304,6.9,6.9,91,0.00,CLR,,0.00,WeatherDisplay:10.37,2014-10-25 12:02:00,
2014-10-25 08:07:00,65.2,61.9,29.87,NNW,330,9.2,9.2,89,0.00,CLR,,0.00,WeatherDisplay:10.37,2014-10-25 12:07:00,
2014-10-25 08:12:00,65.6,62.3,29.88,NW,321,7.0,7.0,89,0.00,CLR,,0.00,WeatherDisplay:10.37,2014-10-25 12:12:00,
2014-10-25 08:17:00,65.9,62.2,29.88,NW,316,4.6,4.6,88,0.00,CLR,,0.00,WeatherDisplay:10.37,2014-10-25 12:17:00,
2014-10-25 08:22:00,66.4,62.7,29.88,NW,319,4.6,4.6,88,0.00,CLR,,0.00,WeatherDisplay:10.37,2014-10-25 12:22:00,
2014-10-25 08:27:00,66.6,62.3,29.88,NW,323,9.2,9.2,86,0.00,CLR,,0.00,WeatherDisplay:10.37,2014-10-25 12:27:00,
2014-10-25 08:32:00,67.0,62.7,29.88,NW,322,4.6,4.6,86,0.00,CLR,,0.00,WeatherDisplay:10.37,2014-10-25 12:32:00,
2014-10-25 08:37:00,67.6,62.9,29.88,NW,309,10.4,10.4,85,0.00,CLR,,0.00,WeatherDisplay:10.37,2014-10-25 12:37:00,
2014-10-25 08:42:00,68.1,62.7,29.89,NW,304,3.5,3.5,83,0.00,CLR,,0.00,WeatherDisplay:10.37,2014-10-25 12:42:00,
2014-10-25 08:47:00,68.7,63.3,29.89,NNW,340,4.6,4.6,83,0.00,CLR,,0.00,WeatherDisplay:10.37,2014-10-25 12:47:00,
2014-10-25 08:52:00,69.3,63.6,29.89,NW,313,3.5,3.5,82,0.00,CLR,,0.00,WeatherDisplay:10.37,2014-10-25 12:52:00,
2014-10-25 08:57:00,69.9,63.8,29.89,NNW,336,4.6,4.6,81,0.00,CLR,,0.00,WeatherDisplay:10.37,2014-10-25 12:57:00,
2014-10-25 09:02:00,70.6,63.8,29.89,NW,320,11.5,11.5,79,0.00,CLR,,0.00,WeatherDisplay:10.37,2014-10-25 13:02:00,
2014-10-25 09:07:00,71.0,63.8,29.89,NNW,329,11.5,11.5,78,0.00,CLR,,0.00,WeatherDisplay:10.37,2014-10-25 13:07:00,
2014-10-25 09:12:00,71.1,63.9,29.89,NW,318,6.9,6.9,78,0.00,CLR,,0.00,WeatherDisplay:10.37,2014-10-25 13:12:00,
2014-10-25 09:17:00,71.3,64.1,29.89,North,360,6.9,6.9,78,0.00,CLR,,0.00,WeatherDisplay:10.37,2014-10-25 13:17:00,
2014-10-25 09:22:00,71.9,64.3,29.89,WNW,303,11.5,11.5,77,0.00,CLR,,0.00,WeatherDisplay:10.37,2014-10-25 13:22:00,
2014-10-25 09:27:00,72.4,64.0,29.89,NNW,336,11.5,11.5,75,0.00,CLR,,0.00,WeatherDisplay:10.37,2014-10-25 13:27:00,
2014-10-25 09:32:00,72.8,64.0,29.89,North,360,10.4,10.4,74,0.00,CLR,,0.00,WeatherDisplay:10.37,2014-10-25 13:32:00,
2014-10-25 09:37:00,73.3,64.5,29.89,NNW,338,11.5,11.5,74,0.00,CLR,,0.00,WeatherDisplay:10.37,2014-10-25 13:37:00,
2014-10-25 09:42:00,73.7,64.5,29.89,NNW,338,10.4,10.4,73,0.00,CLR,,0.00,WeatherDisplay:10.37,2014-10-25 13:42:00,
2014-10-25 09:47:00,73.8,64.2,29.89,NNW,348,6.0,6.0,72,0.00,CLR,,0.00,WeatherDisplay:10.37,2014-10-25 13:47:00,
2014-10-25 09:52:00,74.1,64.9,29.89,NE,40,11.5,11.5,73,0.00,CLR,,0.00,WeatherDisplay:10.37,2014-10-25 13:52:00,
2014-10-25 09:57:00,74.3,64.7,29.89,NNW,346,10.4,10.4,72,0.00,CLR,,0.00,WeatherDisplay:10.37,2014-10-25 13:57:00,
2014-10-25 10:02:00,74.4,64.4,29.89,NNW,346,6.9,6.9,71,0.00,CLR,,0.00,WeatherDisplay:10.37,2014-10-25 14:02:00,
2014-10-25 10:07:00,74.4,64.4,29.89,WNW,288,12.7,12.7,71,0.00,CLR,,0.00,WeatherDisplay:10.37,2014-10-25 14:07:00,
2014-10-25 10:12:00,74.8,65.2,29.89,North,5,3.5,3.5,72,0.00,CLR,,0.00,WeatherDisplay:10.37,2014-10-25 14:12:00,
2014-10-25 10:17:00,75.4,64.9,29.89,NNW,336,11.5,11.5,70,0.00,CLR,,0.00,WeatherDisplay:10.37,2014-10-25 14:17:00,
2014-10-25 10:22:00,75.8,64.9,29.90,NNW,343,14.0,14.0,69,0.00,CLR,,0.00,WeatherDisplay:10.37,2014-10-25 14:22:00,
2014-10-25 10:27:00,76.0,65.1,29.90,NNW,339,12.7,12.7,69,0.00,CLR,,0.00,WeatherDisplay:10.37,2014-10-25 14:27:00,
2014-10-25 10:32:00,76.2,65.3,29.90,North,5,9.0,9.0,69,0.00,CLR,,0.00,WeatherDisplay:10.37,2014-10-25 14:32:00,
2014-10-25 10:37:00,76.5,65.6,29.90,NNW,332,9.2,9.2,69,0.00,CLR,,0.00,WeatherDisplay:10.37,2014-10-25 14:37:00,
2014-10-25 10:42:00,76.8,65.4,29.90,NNW,343,11.5,11.5,68,0.00,CLR,,0.00,WeatherDisplay:10.37,2014-10-25 14:42:00,
2014-10-25 10:47:00,77.4,65.6,29.90,NNW,344,9.2,9.2,67,0.00,CLR,,0.00,WeatherDisplay:10.37,2014-10-25 14:47:00,
2014-10-25 10:52:00,77.8,65.5,29.90,NW,317,8.1,8.1,66,0.00,CLR,,0.00,WeatherDisplay:10.37,2014-10-25 14:52:00,
2014-10-25 10:57:00,78.2,65.5,29.90,North,355,12.7,12.7,65,0.00,CLR,,0.00,WeatherDisplay:10.37,2014-10-25 14:57:00,
2014-10-25 11:02:00,78.3,65.6,29.90,NNE,27,6.9,6.9,65,0.00,CLR,,0.00,WeatherDisplay:10.37,2014-10-25 15:02:00,
2014-10-25 11:07:00,78.8,66.0,29.90,NNE,14,11.5,11.5,65,0.00,CLR,,0.00,WeatherDisplay:10.37,2014-10-25 15:07:00,
2014-10-25 11:12:00,79.1,65.9,29.89,NW,319,12.0,12.0,64,0.00,CLR,,0.00,WeatherDisplay:10.37,2014-10-25 15:12:00,
2014-10-25 11:17:00,79.2,65.5,29.89,North,360,5.8,5.8,63,0.00,CLR,,0.00,WeatherDisplay:10.37,2014-10-25 15:17:00,
2014-10-25 11:22:00,79.4,65.2,29.89,NW,325,8.1,8.1,62,0.00,CLR,,0.00,WeatherDisplay:10.37,2014-10-25 15:22:00,
2014-10-25 11:27:00,79.6,65.9,29.89,North,351,10.4,10.4,63,0.00,CLR,,0.00,WeatherDisplay:10.37,2014-10-25 15:27:00,
2014-10-25 11:32:00,79.9,64.8,29.89,NNE,12,12.0,12.0,60,0.00,CLR,,0.00,WeatherDisplay:10.37,2014-10-25 15:32:00,
2014-10-25 11:37:00,80.3,65.6,29.89,NNW,334,6.9,6.9,61,0.00,CLR,,0.00,WeatherDisplay:10.37,2014-10-25 15:37:00,
2014-10-25 11:42:00,80.8,65.1,29.89,North,9,5.8,5.8,59,0.00,CLR,,0.00,WeatherDisplay:10.37,2014-10-25 15:42:00,
2014-10-25 11:47:00,81.1,64.9,29.89,ENE,76,11.5,11.5,58,0.00,CLR,,0.00,WeatherDisplay:10.37,2014-10-25 15:47:00,
2014-10-25 11:52:00,81.1,65.4,29.89,WNW,300,4.6,4.6,59,0.00,CLR,,0.00,WeatherDisplay:10.37,2014-10-25 15:52:00,
2014-10-25 11:57:00,81.2,65.5,29.89,North,351,11.5,11.5,59,0.00,CLR,,0.00,WeatherDisplay:10.37,2014-10-25 15:57:00,
2014-10-25 12:02:00,81.5,65.3,29.89,NNE,20,13.8,13.8,58,0.00,CLR,,0.00,WeatherDisplay:10.37,2014-10-25 16:02:00,
2014-10-25 12:07:00,81.2,64.5,29.88,NNW,339,11.5,11.5,57,0.00,CLR,,0.00,WeatherDisplay:10.37,2014-10-25 16:07:00,
2014-10-25 12:12:00,81.3,64.1,29.88,North,11,11.5,11.5,56,0.00,CLR,,0.00,WeatherDisplay:10.37,2014-10-25 16:12:00,
2014-10-25 12:17:00,81.3,63.1,29.88,North,11,11.5,11.5,54,0.00,CLR,,0.00,WeatherDisplay:10.37,2014-10-25 16:17:00,
2014-10-25 12:22:00,81.5,64.3,29.88,NW,315,11.5,11.5,56,0.00,CLR,,0.00,WeatherDisplay:10.37,2014-10-25 16:22:00,
2014-10-25 12:27:00,81.3,61.4,29.88,NNE,32,16.1,16.1,51,0.00,CLR,,0.00,WeatherDisplay:10.37,2014-10-25 16:27:00,
2014-10-25 12:32:00,80.8,62.6,29.88,North,360,17.3,17.3,54,0.00,CLR,,0.00,WeatherDisplay:10.37,2014-10-25 16:32:00,
2014-10-25 12:37:00,80.8,63.6,29.88,NE,52,13.8,13.8,56,0.00,CLR,,0.00,WeatherDisplay:10.37,2014-10-25 16:37:00,
2014-10-25 12:42:00,81.0,64.3,29.88,NE,46,13.8,13.8,57,0.00,CLR,,0.00,WeatherDisplay:10.37,2014-10-25 16:42:00,
2014-10-25 12:47:00,81.3,63.6,29.88,NE,44,6.9,6.9,55,0.00,CLR,,0.00,WeatherDisplay:10.37,2014-10-25 16:47:00,
2014-10-25 12:52:00,81.4,63.7,29.88,NE,42,15.0,15.0,55,0.00,CLR,,0.00,WeatherDisplay:10.37,2014-10-25 16:52:00,
2014-10-25 12:57:00,81.0,64.3,29.88,NE,44,11.5,11.5,57,0.00,CLR,,0.00,WeatherDisplay:10.37,2014-10-25 16:57:00,
2014-10-25 13:02:00,81.1,64.9,29.88,NE,51,11.5,11.5,58,0.00,CLR,,0.00,WeatherDisplay:10.37,2014-10-25 17:02:00,
2014-10-25 13:07:00,80.4,65.2,29.88,NNE,23,15.0,15.0,60,0.00,CLR,,0.00,WeatherDisplay:10.37,2014-10-25 17:07:00,
2014-10-25 13:12:00,80.3,64.7,29.88,ENE,64,11.5,11.5,59,0.00,CLR,,0.00,WeatherDisplay:10.37,2014-10-25 17:12:00,
2014-10-25 13:17:00,80.3,64.7,29.88,NE,37,11.5,11.5,59,0.00,CLR,,0.00,WeatherDisplay:10.37,2014-10-25 17:17:00,
2014-10-25 13:22:00,80.4,65.2,29.88,North,349,13.8,13.8,60,0.00,CLR,,0.00,WeatherDisplay:10.37,2014-10-25 17:22:00,
2014-10-25 13:27:00,79.8,65.2,29.88,NNW,340,5.8,5.8,61,0.00,CLR,,0.00,WeatherDisplay:10.37,2014-10-25 17:27:00,
2014-10-25 13:32:00,80.5,65.8,29.87,NE,52,15.0,15.0,61,0.00,CLR,,0.00,WeatherDisplay:10.37,2014-10-25 17:32:00,
2014-10-25 13:38:00,80.9,64.7,29.87,NNE,17,16.1,16.1,58,0.00,CLR,,0.00,WeatherDisplay:10.37,2014-10-25 17:38:00,
2014-10-25 13:43:00,81.0,64.8,29.87,North,355,12.7,12.7,58,0.00,CLR,,0.00,WeatherDisplay:10.37,2014-10-25 17:43:00,
2014-10-25 13:48:00,81.3,64.1,29.87,NNE,29,10.4,10.4,56,0.00,CLR,,0.00,WeatherDisplay:10.37,2014-10-25 17:48:00,
2014-10-25 13:53:00,81.4,64.2,29.86,North,5,17.3,17.3,56,0.00,CLR,,0.00,WeatherDisplay:10.37,2014-10-25 17:53:00,
2014-10-25 13:58:00,82.0,65.8,29.86,NNE,28,9.2,9.2,58,0.00,CLR,,0.00,WeatherDisplay:10.37,2014-10-25 17:58:00,
2014-10-25 14:03:00,81.7,64.5,29.86,NE,49,10.4,10.4,56,0.00,CLR,,0.00,WeatherDisplay:10.37,2014-10-25 18:03:00,
2014-10-25 14:08:00,80.8,64.6,29.86,North,355,10.4,10.4,58,0.00,CLR,,0.00,WeatherDisplay:10.37,2014-10-25 18:08:00,
2014-10-25 14:13:00,80.9,65.2,29.86,NNE,19,11.5,11.5,59,0.00,CLR,,0.00,WeatherDisplay:10.37,2014-10-25 18:13:00,
2014-10-25 14:18:00,81.1,64.4,29.85,NE,49,10.0,10.0,57,0.00,CLR,,0.00,WeatherDisplay:10.37,2014-10-25 18:18:00,
2014-10-25 14:23:00,81.3,65.1,29.85,ENE,66,12.7,12.7,58,0.00,CLR,,0.00,WeatherDisplay:10.37,2014-10-25 18:23:00,
2014-10-25 14:28:00,80.9,65.2,29.85,ENE,66,12.0,12.0,59,0.00,CLR,,0.00,WeatherDisplay:10.37,2014-10-25 18:28:00,
2014-10-25 14:33:00,80.4,64.8,29.85,NNE,26,11.5,11.5,59,0.00,CLR,,0.00,WeatherDisplay:10.37,2014-10-25 18:33:00,
2014-10-25 14:38:00,80.2,64.6,29.85,NE,51,12.7,12.7,59,0.00,CLR,,0.00,WeatherDisplay:10.37,2014-10-25 18:38:00,
2014-10-25 14:43:00,79.7,64.6,29.85,NNE,15,12.7,12.7,60,0.00,CLR,,0.00,WeatherDisplay:10.37,2014-10-25 18:43:00,
2014-10-25 14:48:00,79.8,64.7,29.85,NE,39,11.5,11.5,60,0.00,CLR,,0.00,WeatherDisplay:10.37,2014-10-25 18:48:00,
2014-10-25 14:53:00,79.5,64.9,29.85,NNE,16,10.4,10.4,61,0.00,CLR,,0.00,WeatherDisplay:10.37,2014-10-25 18:53:00,
2014-10-25 14:58:00,79.4,64.3,29.85,North,360,12.7,12.7,60,0.00,CLR,,0.00,WeatherDisplay:10.37,2014-10-25 18:58:00,
2014-10-25 15:03:00,79.7,64.6,29.85,NNE,32,13.8,13.8,60,0.00,CLR,,0.00,WeatherDisplay:10.37,2014-10-25 19:03:00,
2014-10-25 15:08:00,79.9,64.8,29.85,NNE,31,11.5,11.5,60,0.00,CLR,,0.00,WeatherDisplay:10.37,2014-10-25 19:08:00,
2014-10-25 15:13:00,80.3,65.6,29.85,NE,51,11.0,11.0,61,0.00,CLR,,0.00,WeatherDisplay:10.37,2014-10-25 19:13:00,
2014-10-25 15:18:00,80.3,65.1,29.85,ENE,67,13.8,13.8,60,0.00,CLR,,0.00,WeatherDisplay:10.37,2014-10-25 19:18:00,
2014-10-25 15:23:00,79.9,65.2,29.85,NNW,338,10.4,10.4,61,0.00,CLR,,0.00,WeatherDisplay:10.37,2014-10-25 19:23:00,
2014-10-25 15:28:00,80.1,65.0,29.85,NNW,344,6.9,6.9,60,0.00,CLR,,0.00,WeatherDisplay:10.37,2014-10-25 19:28:00,
2014-10-25 15:33:00,80.7,65.0,29.85,NE,38,11.5,11.5,59,0.00,CLR,,0.00,WeatherDisplay:10.37,2014-10-25 19:33:00,
2014-10-25 15:38:00,81.0,65.3,29.85,NE,47,12.7,12.7,59,0.00,CLR,,0.00,WeatherDisplay:10.37,2014-10-25 19:38:00,
2014-10-25 15:43:00,80.9,65.2,29.85,ENE,65,10.4,10.4,59,0.00,CLR,,0.00,WeatherDisplay:10.37,2014-10-25 19:43:00,
2014-10-25 15:48:00,81.1,65.4,29.85,NE,41,9.2,9.2,59,0.00,CLR,,0.00,WeatherDisplay:10.37,2014-10-25 19:48:00,
2014-10-25 15:53:00,81.2,65.0,29.85,NNE,28,11.5,11.5,58,0.00,CLR,,0.00,WeatherDisplay:10.37,2014-10-25 19:53:00,
2014-10-25 15:58:00,81.3,65.1,29.85,North,351,12.7,12.7,58,0.00,CLR,,0.00,WeatherDisplay:10.37,2014-10-25 19:58:00,
2014-10-25 16:03:00,81.5,64.8,29.85,NNW,340,9.2,9.2,57,0.00,CLR,,0.00,WeatherDisplay:10.37,2014-10-25 20:03:00,
2014-10-25 16:08:00,81.7,64.5,29.85,North,360,11.5,11.5,56,0.00,CLR,,0.00,WeatherDisplay:10.37,2014-10-25 20:08:00,
2014-10-25 16:13:00,81.1,64.4,29.85,NNE,13,6.9,6.9,57,0.00,CLR,,0.00,WeatherDisplay:10.37,2014-10-25 20:13:00,
2014-10-25 16:18:00,80.9,64.2,29.85,NE,36,8.1,8.1,57,0.00,CLR,,0.00,WeatherDisplay:10.37,2014-10-25 20:18:00,
2014-10-25 16:23:00,81.1,65.4,29.85,NNE,19,11.5,11.5,59,0.00,CLR,,0.00,WeatherDisplay:10.37,2014-10-25 20:23:00,
2014-10-25 16:28:00,81.1,64.4,29.85,NE,36,12.7,12.7,57,0.00,CLR,,0.00,WeatherDisplay:10.37,2014-10-25 20:28:00,
2014-10-25 16:33:00,80.3,64.7,29.85,NE,39,9.2,9.2,59,0.00,CLR,,0.00,WeatherDisplay:10.37,2014-10-25 20:33:00,
2014-10-25 16:38:00,80.5,65.8,29.85,North,355,6.9,6.9,61,0.00,CLR,,0.00,WeatherDisplay:10.37,2014-10-25 20:38:00,
2014-10-25 16:43:00,81.0,66.3,29.85,NNW,346,6.0,6.4,61,0.00,CLR,,0.00,WeatherDisplay:10.37,2014-10-25 20:43:00,
2014-10-25 16:48:00,81.2,66.5,29.85,NE,55,11.5,11.5,61,0.00,CLR,,0.00,WeatherDisplay:10.37,2014-10-25 20:48:00,
2014-10-25 16:53:00,81.0,66.3,29.85,NE,41,11.5,11.5,61,0.00,CLR,,0.00,WeatherDisplay:10.37,2014-10-25 20:53:00,
2014-10-25 16:58:00,80.8,66.6,29.85,NNE,32,8.1,8.1,62,0.00,CLR,,0.00,WeatherDisplay:10.37,2014-10-25 20:58:00,
2014-10-25 17:03:00,80.5,65.8,29.85,NNE,24,18.4,18.4,61,0.00,CLR,,0.00,WeatherDisplay:10.37,2014-10-25 21:03:00,
2014-10-25 17:08:00,79.4,65.7,29.85,NNE,14,10.4,10.4,63,0.00,CLR,,0.00,WeatherDisplay:10.37,2014-10-25 21:08:00,
2014-10-25 17:13:00,79.1,66.3,29.85,NE,37,5.8,5.8,65,0.00,CLR,,0.00,WeatherDisplay:10.37,2014-10-25 21:13:00,
2014-10-25 17:18:00,79.1,66.3,29.85,NNE,14,15.0,15.0,65,0.00,CLR,,0.00,WeatherDisplay:10.37,2014-10-25 21:18:00,
2014-10-25 17:23:00,79.3,66.5,29.85,NNE,26,13.0,13.0,65,0.00,CLR,,0.00,WeatherDisplay:10.37,2014-10-25 21:23:00,
2014-10-25 17:28:00,79.1,65.9,29.85,NE,39,14.0,14.0,64,0.00,CLR,,0.00,WeatherDisplay:10.37,2014-10-25 21:28:00,
2014-10-25 17:33:00,78.8,66.0,29.85,NNE,26,12.7,12.7,65,0.00,CLR,,0.00,WeatherDisplay:10.37,2014-10-25 21:33:00,
2014-10-25 17:38:00,78.7,65.9,29.85,NE,35,15.0,15.0,65,0.00,CLR,,0.00,WeatherDisplay:10.37,2014-10-25 21:38:00,
2014-10-25 17:43:00,78.5,65.8,29.85,North,360,11.5,11.5,65,0.00,CLR,,0.00,WeatherDisplay:10.37,2014-10-25 21:43:00,
2014-10-25 17:48:00,78.2,65.9,29.85,NNE,28,11.5,11.5,66,0.00,CLR,,0.00,WeatherDisplay:10.37,2014-10-25 21:48:00,
2014-10-25 17:53:00,78.2,66.3,29.85,NNE,28,10.4,10.4,67,0.00,CLR,,0.00,WeatherDisplay:10.37,2014-10-25 21:53:00,
2014-10-25 17:58:00,78.0,66.6,29.85,North,5,12.7,12.7,68,0.00,CLR,,0.00,WeatherDisplay:10.37,2014-10-25 21:58:00,
2014-10-25 18:03:00,77.9,66.9,29.85,NNE,32,5.8,5.8,69,0.00,CLR,,0.00,WeatherDisplay:10.37,2014-10-25 22:03:00,
2014-10-25 18:08:00,77.7,66.7,29.85,NNE,24,11.5,11.5,69,0.00,CLR,,0.00,WeatherDisplay:10.37,2014-10-25 22:08:00,
2014-10-25 18:13:00,77.3,65.9,29.85,NE,36,11.5,11.5,68,0.00,CLR,,0.00,WeatherDisplay:10.37,2014-10-25 22:13:00,
2014-10-25 18:18:00,76.9,66.0,29.86,North,355,12.7,12.7,69,0.00,CLR,,0.00,WeatherDisplay:10.37,2014-10-25 22:18:00,
2014-10-25 18:23:00,76.5,66.0,29.86,NE,34,11.5,11.5,70,0.00,CLR,,0.00,WeatherDisplay:10.37,2014-10-25 22:23:00,
2014-10-25 18:28:00,76.3,66.2,29.86,NE,34,11.5,11.5,71,0.00,CLR,,0.00,WeatherDisplay:10.37,2014-10-25 22:28:00,
2014-10-25 18:34:00,75.9,66.2,29.86,NNE,15,13.8,13.8,72,0.00,CLR,,0.00,WeatherDisplay:10.37,2014-10-25 22:34:00,
2014-10-25 18:39:00,75.6,66.3,29.86,North,11,8.1,8.2,73,0.00,CLR,,0.00,WeatherDisplay:10.37,2014-10-25 22:39:00,
2014-10-25 18:44:00,75.2,66.3,29.86,NE,39,10.4,10.4,74,0.00,CLR,,0.00,WeatherDisplay:10.37,2014-10-25 22:44:00,
2014-10-25 18:49:00,74.9,66.1,29.86,North,360,8.1,8.1,74,0.00,CLR,,0.00,WeatherDisplay:10.37,2014-10-25 22:49:00,
2014-10-25 18:54:00,74.7,65.9,29.87,North,355,5.8,5.8,74,0.00,CLR,,0.00,WeatherDisplay:10.37,2014-10-25 22:54:00,
2014-10-25 18:59:00,74.5,66.1,29.87,NNW,336,3.5,3.5,75,0.00,CLR,,0.00,WeatherDisplay:10.37,2014-10-25 22:59:00,
2014-10-25 19:04:00,74.3,66.2,29.87,North,5,5.0,5.0,76,0.00,CLR,,0.00,WeatherDisplay:10.37,2014-10-25 23:04:00,
2014-10-25 19:09:00,74.1,66.0,29.87,NNW,346,5.8,5.8,76,0.00,CLR,,0.00,WeatherDisplay:10.37,2014-10-25 23:09:00,
2014-10-25 19:14:00,74.0,66.0,29.87,North,5,10.4,10.4,76,0.00,CLR,,0.00,WeatherDisplay:10.37,2014-10-25 23:14:00,
2014-10-25 19:19:00,73.8,66.1,29.88,NE,35,6.9,6.9,77,0.00,CLR,,0.00,WeatherDisplay:10.37,2014-10-25 23:19:00,
2014-10-25 19:24:00,73.7,66.0,29.88,North,350,4.6,4.6,77,0.00,CLR,,0.00,WeatherDisplay:10.37,2014-10-25 23:24:00,
2014-10-25 19:29:00,73.5,66.2,29.88,North,351,9.2,9.2,78,0.00,CLR,,0.00,WeatherDisplay:10.37,2014-10-25 23:29:00,
2014-10-25 19:34:00,73.3,66.0,29.88,NNW,336,5.8,5.8,78,0.00,CLR,,0.00,WeatherDisplay:10.37,2014-10-25 23:34:00,
2014-10-25 19:39:00,73.1,65.8,29.88,North,355,9.2,9.2,78,0.00,CLR,,0.00,WeatherDisplay:10.37,2014-10-25 23:39:00,
2014-10-25 19:44:00,73.0,66.1,29.88,North,9,3.5,3.5,79,0.00,CLR,,0.00,WeatherDisplay:10.37,2014-10-25 23:44:00,
2014-10-25 19:49:00,72.9,66.0,29.88,NNW,344,3.5,3.5,79,0.00,CLR,,0.00,WeatherDisplay:10.37,2014-10-25 23:49:00,
2014-10-25 19:54:00,72.7,65.8,29.88,North,5,4.6,4.6,79,0.00,CLR,,0.00,WeatherDisplay:10.37,2014-10-25 23:54:00,
2014-10-25 19:59:00,72.6,65.7,29.88,NNW,338,5.0,5.0,79,0.00,CLR,,0.00,WeatherDisplay:10.37,2014-10-25 23:59:00,
2014-10-25 20:04:00,72.4,65.5,29.89,North,355,3.5,3.5,79,0.00,CLR,,0.00,WeatherDisplay:10.37,2014-10-26 00:04:00,
2014-10-25 20:09:00,72.3,65.8,29.89,NNW,344,5.8,5.8,80,0.00,CLR,,0.00,WeatherDisplay:10.37,2014-10-26 00:09:00,
2014-10-25 20:14:00,72.2,65.7,29.89,North,355,5.8,5.8,80,0.00,CLR,,0.00,WeatherDisplay:10.37,2014-10-26 00:14:00,
2014-10-25 20:19:00,72.1,65.6,29.89,NNE,26,3.5,3.5,80,0.00,CLR,,0.00,WeatherDisplay:10.37,2014-10-26 00:19:00,
2014-10-25 20:24:00,72.0,65.8,29.89,North,5,4.6,4.6,81,0.00,CLR,,0.00,WeatherDisplay:10.37,2014-10-26 00:24:00,
2014-10-25 20:29:00,71.9,65.8,29.89,NNE,15,8.1,8.1,81,0.00,CLR,,0.00,WeatherDisplay:10.37,2014-10-26 00:29:00,
2014-10-25 20:34:00,71.8,65.7,29.89,North,360,5.0,5.0,81,0.00,CLR,,0.00,WeatherDisplay:10.37,2014-10-26 00:34:00,